Weather History for KVUO - December, 2011

Change the Weather History Date:

Friday, December 9, 2011

  Actual Average Record
Temperature  
Mean Temperature 36 °F 41 °F  
Max Temperature 48 °F 47 °F 60 °F (2004)
Min Temperature 24 °F 35 °F 10 °F (2009)
Degree Days  
Heating Degree Days 29    
Month to date heating degree days 257  
Since 1 July heating degree days 1197  
Cooling Degree Days 0    
Month to date cooling degree days 0  
Year to date cooling degree days 339  
Moisture  
Dew Point 27 °F    
Average Humidity 75    
Maximum Humidity 92    
Minimum Humidity 58    
Precipitation  
Precipitation 0.00 in 0.21 in - ()
Month to date precipitation 0.02 1.82  
Year to date precipitation 34.65 34.19  
Snow  
Snow 0.00 in - - ()
Month to date snowfall 0.0  
Snow Depth 0.00 in    
Sea Level Pressure  
Sea Level Pressure 30.26 in    
Wind  
Wind Speed 3 mph (SSE)    
Max Wind Speed 15 mph    
Max Gust Speed 21 mph    
Visibility 8 miles    
Events      
T = Trace of Precipitation, MM = Missing Value Source: NWS Daily Summary

Daily Weather History Graph

Daily Weather History Graph

Search for Another Location

Airport or City:

Trip Planner

Search our weather history database for the weather conditions in past years. The results will help you decide how hot, cold, wet, or windy it might be!

Date:

Astronomy

Dec. 09, 2011 Rise Set
Actual Time 7:39 AM PST 4:26 PM PST
Civil Twilight 7:05 AM PST 5:00 PM PST
Nautical Twilight 6:27 AM PST 5:38 PM PST
Astronomical Twilight 5:51 AM PST 6:14 PM PST
Moon 3:53 PM PST (12/9) 6:52 AM PST (12/9)
Length of Visible Light 9h 55m
Length of Day
8h 47m
Waxing Gibbous, 99% of the Moon is Illuminated
Dec 9
Waxing Gibbous
Dec 10
Full
Dec 17
Last Quarter
Dec 24
New
Dec 31
First Quarter

Hourly Weather History & Observations

Time (PST) Temp. Windchill Dew Point Humidity Pressure Visibility Wind Dir Wind Speed Gust Speed Precip Events Conditions
12:53 AM 28.0 °F - 26.1 °F 92% 30.32 in 8.0 mi Calm Calm - N/A   Clear
1:53 AM 26.1 °F - 23.0 °F 88% 30.31 in 1.2 mi Calm Calm - N/A   Clear
2:02 AM 26.6 °F - 23.0 °F 86% 30.31 in 0.8 mi Calm Calm - N/A   Clear
2:12 AM 26.6 °F - 23.0 °F 86% 30.31 in 1.5 mi Calm Calm - N/A   Clear
2:15 AM 26.6 °F - 23.0 °F 86% 30.31 in 3.0 mi Calm Calm - N/A   Clear
2:53 AM 25.0 °F - 21.9 °F 88% 30.31 in 8.0 mi Calm Calm - N/A   Clear
3:53 AM 27.0 °F - 24.1 °F 89% 30.30 in 6.0 mi Calm Calm - N/A   Clear
5:53 AM 25.0 °F - 21.9 °F 88% 30.30 in 6.0 mi Calm Calm - N/A   Clear
6:53 AM 26.1 °F - 21.9 °F 84% 30.30 in 7.0 mi Calm Calm - N/A   Clear
7:53 AM 25.0 °F - 21.9 °F 88% 30.30 in 6.0 mi Calm Calm - N/A   Clear
8:53 AM 30.0 °F - 27.0 °F 88% 30.31 in 6.0 mi Calm Calm - N/A   Clear
9:53 AM 36.0 °F - 32.0 °F 86% 30.31 in 8.0 mi Calm Calm - N/A   Clear
10:53 AM 39.0 °F - 33.1 °F 79% 30.30 in 10.0 mi Calm Calm - N/A   Clear
11:53 AM 41.0 °F 39.0 °F 33.1 °F 73% 30.27 in 10.0 mi West 3.5 mph - N/A   Clear
12:53 PM 45.0 °F 43.5 °F 32.0 °F 60% 30.25 in 10.0 mi South 3.5 mph - N/A   Clear
1:53 PM 46.9 °F - 32.0 °F 56% 30.22 in 10.0 mi Calm Calm - N/A   Clear
2:53 PM 46.9 °F - 32.0 °F 56% 30.20 in 10.0 mi Calm Calm - N/A   Clear
3:53 PM 45.0 °F 43.5 °F 30.9 °F 58% 30.20 in 10.0 mi South 3.5 mph - N/A   Clear
4:53 PM 43.0 °F 41.3 °F 30.0 °F 60% 30.20 in 10.0 mi SSE 3.5 mph - N/A   Clear
5:53 PM 41.0 °F 37.1 °F 30.0 °F 65% 30.20 in 10.0 mi SE 5.8 mph - N/A   Clear
6:53 PM 39.9 °F 34.5 °F 28.9 °F 65% 30.20 in 10.0 mi SE 8.1 mph - N/A   Clear
7:53 PM 37.9 °F 32.1 °F 28.9 °F 70% 30.20 in 10.0 mi SE 8.1 mph - N/A   Clear
8:53 PM 37.9 °F 32.7 °F 28.0 °F 68% 30.21 in 10.0 mi SSE 6.9 mph - N/A   Clear
9:53 PM 37.0 °F 30.4 °F 28.0 °F 70% 30.22 in 10.0 mi SE 9.2 mph - N/A   Clear
10:53 PM 37.9 °F 29.6 °F 28.0 °F 68% 30.22 in 10.0 mi SE 13.8 mph 19.6 mph N/A   Clear